Weather History for Wenatchee, WA

Change the Weather History Date:

Friday, November 30, 2012

  Actual Average Record
Temperature  
Mean Temperature 40 °F 29 °F  
Max Temperature 43 °F 34 °F 57 °F (1995)
Min Temperature 36 °F 23 °F -2 °F (1985)
Degree Days  
Heating Degree Days 25 36  
Month to date heating degree days 712 926  
Since 1 July heating degree days 1159 1882  
Cooling Degree Days 0 0  
Month to date cooling degree days 0 0  
Year to date cooling degree days 888 249  
Moisture  
Dew Point 35 °F    
Average Humidity 84    
Maximum Humidity 92    
Minimum Humidity 76    
Precipitation  
Precipitation T in 0.09 in 0.64 in (1975)
Month to date precipitation 0.53 2.21  
Year to date precipitation 7.51 14.55  
Snow  
Snow 0.00 in 0.50 in - ()
Month to date snowfall 7.8  
Since 1 July snowfall 7.9  
Since 1 September snowfall 7.9  
Snow Depth -    
Sea Level Pressure  
Sea Level Pressure 29.55 in    
Wind  
Wind Speed 1 mph (West)    
Max Wind Speed 4 mph    
Max Gust Speed 5 mph    
Visibility 8 miles    
Events      
T = Trace of Precipitation, MM = Missing Value Source: NWS Daily Summary

Daily Weather History Graph

Daily Weather History Graph

Search for Another Location

Airport:

Trip Planner

Search our weather history database for the weather conditions in past years. The results will help you decide how hot, cold, wet, or windy it might be!

Date:

Astronomy

Nov. 30, 2012 Rise Set
Actual Time 7:26 AM PST 4:12 PM PST
Civil Twilight 6:51 AM PST 4:47 PM PST
Nautical Twilight 6:13 AM PST 5:25 PM PST
Astronomical Twilight 5:36 AM PST 6:02 PM PST
Moon 6:12 PM PST (11/30) 9:01 AM PST (11/30)
Length of Visible Light 9h 55m
Length of Day
8h 45m
Waning Gibbous, 96% of the Moon is Illuminated
Nov 30
Waning Gibbous
Dec 6
Last Quarter
Dec 13
New
Dec 19
First Quarter
Dec 28
Full

Hourly Weather History & Observations

Time (PST) Temp. Windchill Dew Point Humidity Pressure Visibility Wind Dir Wind Speed Gust Speed Precip Events Conditions
12:55 AM 37.0 °F 34.5 °F 34.0 °F 89% 29.59 in 8.0 mi West 3.5 mph - N/A   Overcast
1:16 AM 37.4 °F - 33.8 °F 87% 29.57 in 6.0 mi Calm Calm - N/A   Overcast
1:55 AM 37.0 °F - 34.0 °F 89% 29.59 in 9.0 mi Calm Calm - N/A   Overcast
2:47 AM 37.4 °F 33.8 °F 33.8 °F 87% 29.55 in 1.8 mi SW 4.6 mph - 0.00 in   Overcast
2:55 AM 37.0 °F 34.5 °F 34.0 °F 89% 29.57 in 1.5 mi West 3.5 mph - 0.00 in   Overcast
2:58 AM 37.4 °F 33.8 °F 33.8 °F 87% 29.54 in 3.0 mi West 4.6 mph - N/A   Overcast
3:55 AM 37.0 °F - 33.1 °F 86% 29.56 in 10.0 mi Calm Calm - N/A   Overcast
4:55 AM 37.0 °F 34.5 °F 33.1 °F 86% 29.55 in 10.0 mi NNW 3.5 mph - N/A   Overcast
5:42 AM 37.4 °F - 33.8 °F 87% 29.53 in 10.0 mi Calm Calm - N/A   Overcast
5:55 AM 37.0 °F - 33.1 °F 86% 29.55 in 9.0 mi Calm Calm - N/A   Overcast
6:01 AM 37.4 °F - 33.8 °F 87% 29.52 in 9.0 mi Calm Calm - N/A   Overcast
6:50 AM 37.4 °F 34.9 °F 33.8 °F 87% 29.53 in 7.0 mi West 3.5 mph - N/A   Overcast
6:55 AM 36.0 °F - 34.0 °F 93% 29.55 in 7.0 mi Calm Calm - N/A   Overcast
7:55 AM 37.0 °F - 34.0 °F 89% 29.56 in 10.0 mi Calm Calm - N/A   Overcast
8:12 AM 37.4 °F - 33.8 °F 87% 29.53 in 10.0 mi Calm Calm - N/A   Overcast
8:51 AM 37.4 °F - 33.8 °F 87% 29.54 in 10.0 mi Calm Calm - N/A   Overcast
8:55 AM 37.9 °F 35.5 °F 34.0 °F 86% 29.56 in 10.0 mi WNW 3.5 mph - N/A   Overcast
9:19 AM 37.4 °F 34.9 °F 33.8 °F 87% 29.53 in 10.0 mi WNW 3.5 mph - N/A   Overcast
9:27 AM 37.4 °F - 33.8 °F 87% 29.53 in 10.0 mi Calm Calm - N/A   Overcast
9:55 AM 37.9 °F 34.4 °F 35.1 °F 89% 29.57 in 10.0 mi SW 4.6 mph - N/A   Overcast
10:55 AM 39.0 °F 35.7 °F 34.0 °F 82% 29.57 in 10.0 mi West 4.6 mph - N/A   Overcast
11:09 AM 39.2 °F 37.0 °F 33.8 °F 81% 29.55 in 10.0 mi NW 3.5 mph - N/A   Overcast
11:55 AM 39.9 °F - 34.0 °F 79% 29.57 in 10.0 mi Calm Calm - N/A   Overcast
12:55 PM 41.0 °F - 35.1 °F 79% 29.56 in 10.0 mi Calm Calm - N/A   Overcast
1:55 PM 43.0 °F 40.3 °F 35.1 °F 74% 29.57 in 10.0 mi East 4.6 mph - N/A   Overcast
2:55 PM 42.1 °F - 36.0 °F 79% 29.57 in 10.0 mi Calm Calm - N/A   Overcast
3:55 PM 42.1 °F - 36.0 °F 79% 29.57 in 10.0 mi Calm Calm - N/A   Overcast
4:55 PM 42.1 °F - 36.0 °F 79% 29.57 in 10.0 mi Calm Calm - N/A   Overcast
5:55 PM 42.1 °F - 37.0 °F 82% 29.57 in 10.0 mi Calm Calm - N/A   Overcast
6:55 PM 41.0 °F - 37.0 °F 86% 29.57 in 8.0 mi Calm Calm - N/A   Overcast
7:52 PM 42.8 °F 32.3 °F 37.4 °F 81% 29.55 in 9.0 mi SSE 29.9 mph 102.4 mph N/A   Squalls
7:55 PM 41.0 °F 36.4 °F 37.0 °F 86% 29.57 in 9.0 mi SSE 6.9 mph 102.4 mph N/A   Squalls
10:38 PM 39.2 °F - 37.4 °F 93% 29.52 in 6.0 mi Calm Calm - N/A   Overcast
11:30 PM 39.2 °F - 37.4 °F 93% 29.50 in 5.0 mi Calm Calm - N/A   Overcast
11:55 PM 39.9 °F - 37.0 °F 89% 29.51 in 4.0 mi Calm Calm - N/A   Mostly Cloudy